{"data":{"norad_id":63072,"intl_designator":"2025-035W","name":"STARLINK-33623","alt_names":[],"object_type":"PAYLOAD","status":"ACTIVE","operator":null,"country":"US","launch_date":"2025-02-21","launch_site_code":"AFETR","launch_vehicle":null,"mission":null,"orbit_class":"UNKNOWN","rcs_meters":null,"size_class":null,"mass_kg":null,"dimensions":null,"purposes":["comms"],"wikipedia_slug":null,"has_3d_model":false,"image_url":null,"decayed_at":null,"tle_current":{"epoch":"2026-09-21T07:25:49.053792Z","epoch_age_seconds":92376,"freshness":"FRESH","line1":"1 63072U 25035W   26264.30959553  .00008747  00000+0  32693-3 0  9993","line2":"2 63072  43.0001 122.6348 0001480 268.3989  91.6693 15.27587814 89641","mean_motion":15.27587814,"eccentricity":0.000148,"inclination_deg":43.0001,"raan_deg":122.6348,"arg_perigee_deg":268.3989,"mean_anomaly_deg":91.6693,"bstar":0.00032693,"rev_number":8964,"period_min":94.266266515268,"perigee_km":482.01024613298,"apogee_km":484.04115029166,"semimajor_km":6861.1626982123,"source":"CELESTRAK","updated_at":"2026-09-22T09:00:49.755376Z"}}}